Precipitable_Water
1.38 1.46 1.51 1.52 1.56 1.57 1.54 1.51 1.53 1.51 1.52 1.53 1.48 1.48 1.48 1.53 1.56 1.54 1.56 1.59 1.60 1.59 1.60 1.59 1.59 1.58 1.57 1.55 1.56 1.56 1.58 1.58 1.58 1.60 1.63 1.65 1.64 1.63 1.61 1.60 1.59 1.58
1.33 1.41 1.48 1.52 1.56 1.61 1.60 1.60 1.59 1.55 1.54 1.55 1.54 1.54 1.57 1.58 1.59 1.58 1.57 1.55 1.56 1.55 1.57 1.57 1.56 1.55 1.55 1.53 1.54 1.52 1.55 1.59 1.59 1.68 1.65 1.63 1.62 1.62 1.59 1.57 1.53 1.55
1.29 1.35 1.41 1.43 1.47 1.54 1.57 1.61 1.61 1.60 1.57 1.58 1.58 1.57 1.57 1.60 1.59 1.60 1.59 1.57 1.54 1.54 1.55 1.56 1.55 1.56 1.56 1.57 1.58 1.56 1.56 1.59 1.58 1.65 1.63 1.55 1.57 1.53 1.52 1.50 1.47 1.49
1.24 1.29 1.35 1.40 1.45 1.49 1.56 1.58 1.57 1.57 1.59 1.58 1.57 1.59 1.59 1.60 1.59 1.58 1.58 1.58 1.55 1.54 1.55 1.58 1.60 1.61 1.61 1.62 1.63 1.57 1.55 1.54 1.53 1.53 1.47 1.47 1.50 1.51 1.49 1.51 1.53 1.53
1.19 1.23 1.29 1.36 1.42 1.47 1.52 1.51 1.51 1.54 1.54 1.56 1.58 1.58 1.56 1.55 1.54 1.54 1.55 1.56 1.57 1.56 1.58 1.59 1.62 1.60 1.61 1.61 1.61 1.54 1.52 1.49 1.51 1.50 1.47 1.45 1.49 1.49 1.47 1.49 1.49 1.49
1.19 1.21 1.23 1.28 1.37 1.41 1.42 1.44 1.49 1.52 1.53 1.52 1.52 1.55 1.54 1.54 1.53 1.53 1.54 1.55 1.58 1.59 1.60 1.62 1.62 1.62 1.59 1.57 1.56 1.53 1.52 1.50 1.54 1.55 1.51 1.50 1.54 1.59 1.58 1.57 1.56 1.54
1.14 1.15 1.16 1.22 1.29 1.35 1.36 1.40 1.45 1.49 1.51 1.53 1.54 1.50 1.53 1.51 1.50 1.51 1.53 1.54 1.56 1.60 1.60 1.61 1.60 1.58 1.60 1.59 1.57 1.56 1.58 1.58 1.62 1.66 1.64 1.66 1.66 1.63 1.67 1.67 1.64 1.61
1.18 1.17 1.15 1.18 1.20 1.27 1.29 1.34 1.39 1.43 1.48 1.50 1.46 1.48 1.50 1.49 1.49 1.51 1.53 1.54 1.55 1.57 1.57 1.57 1.58 1.58 1.59 1.60 1.58 1.58 1.60 1.67 1.67 1.70 1.71 1.68 1.68 1.65 1.69 1.72 1.71 1.65
1.27 1.22 1.17 1.14 1.13 1.17 1.21 1.26 1.33 1.38 1.43 1.42 1.43 1.45 1.48 1.46 1.48 1.51 1.53 1.54 1.54 1.55 1.56 1.57 1.61 1.61 1.65 1.64 1.63 1.63 1.65 1.70 1.74 1.77 1.77 1.72 1.67 1.67 1.69 1.74 1.72 1.69
1.30 1.26 1.21 1.16 1.12 1.14 1.14 1.19 1.25 1.32 1.37 1.36 1.40 1.44 1.43 1.46 1.47 1.51 1.53 1.53 1.53 1.54 1.57 1.58 1.60 1.65 1.70 1.75 1.76 1.76 1.77 1.80 1.85 1.86 1.83 1.78 1.73 1.72 1.76 1.81 1.85 1.81
1.31 1.29 1.22 1.17 1.13 1.13 1.12 1.15 1.18 1.23 1.29 1.30 1.33 1.36 1.39 1.41 1.46 1.47 1.49 1.50 1.49 1.51 1.55 1.59 1.64 1.70 1.74 1.78 1.82 1.85 1.86 1.86 1.86 1.86 1.85 1.82 1.79 1.79 1.88 1.98 1.94 1.87
1.38 1.34 1.27 1.22 1.18 1.15 1.12 1.14 1.15 1.16 1.18 1.23 1.24 1.25 1.30 1.34 1.36 1.37 1.40 1.42 1.45 1.47 1.51 1.58 1.66 1.75 1.81 1.85 1.87 1.87 1.86 1.85 1.86 1.87 1.89 1.90 1.91 1.98 1.98 1.88 1.84 1.85
1.44 1.41 1.39 1.35 1.31 1.25 1.21 1.16 1.13 1.12 1.13 1.13 1.18 1.17 1.19 1.22 1.28 1.29 1.34 1.36 1.39 1.42 1.49 1.60 1.71 1.80 1.89 1.97 1.99 2.02 1.97 1.92 1.90 1.92 1.92 1.94 2.00 2.00 1.99 2.06 2.06 2.01
1.52 1.49 1.46 1.43 1.41 1.38 1.33 1.26 1.20 1.16 1.14 1.15 1.17 1.16 1.16 1.19 1.23 1.26 1.30 1.33 1.37 1.42 1.55 1.68 1.76 1.83 1.96 2.08 2.08 2.01 1.97 1.97 1.98 1.96 1.97 1.99 2.00 1.97 1.99 1.98 1.97 1.94
1.60 1.60 1.56 1.51 1.48 1.46 1.41 1.35 1.30 1.24 1.22 1.22 1.22 1.20 1.21 1.23 1.27 1.28 1.29 1.32 1.39 1.46 1.58 1.70 1.75 1.83 1.92 1.98 1.99 2.01 2.05 2.05 2.05 2.01 2.01 1.97 1.93 1.88 1.87 1.86 1.87 1.92
1.64 1.62 1.60 1.57 1.50 1.46 1.46 1.45 1.41 1.35 1.30 1.27 1.25 1.26 1.28 1.31 1.32 1.32 1.31 1.34 1.40 1.49 1.60 1.68 1.74 1.80 1.87 1.98 2.02 1.98 1.99 1.99 2.04 2.05 2.00 1.93 1.84 1.79 1.81 1.87 1.92 1.95
1.66 1.63 1.62 1.58 1.55 1.51 1.49 1.49 1.49 1.47 1.41 1.33 1.29 1.29 1.31 1.35 1.36 1.33 1.34 1.37 1.42 1.48 1.55 1.63 1.71 1.78 1.83 1.87 1.89 1.91 1.95 2.03 2.01 2.04 2.00 1.95 1.90 1.82 1.77 1.78 1.80 1.87
1.66 1.65 1.63 1.61 1.59 1.54 1.52 1.51 1.52 1.52 1.49 1.44 1.35 1.31 1.33 1.36 1.36 1.36 1.38 1.39 1.44 1.48 1.54 1.63 1.68 1.71 1.78 1.86 1.90 1.96 2.01 2.02 2.04 1.96 1.95 2.01 1.99 1.88 1.81 1.77 1.75 1.82
1.68 1.66 1.63 1.63 1.62 1.60 1.58 1.56 1.53 1.51 1.50 1.48 1.42 1.39 1.37 1.34 1.36 1.38 1.39 1.45 1.48 1.50 1.54 1.60 1.61 1.67 1.70 1.77 1.81 1.80 1.87 1.98 1.98 1.97 1.98 2.04 1.98 1.86 1.81 1.76 1.73 1.73
1.69 1.66 1.63 1.63 1.65 1.65 1.63 1.58 1.54 1.49 1.51 1.54 1.54 1.52 1.41 1.36 1.38 1.39 1.45 1.50 1.54 1.54 1.52 1.54 1.57 1.61 1.66 1.72 1.77 1.79 1.85 1.95 1.98 1.93 1.94 1.92 1.83 1.77 1.72 1.70 1.71 1.70
1.71 1.68 1.65 1.65 1.67 1.67 1.64 1.60 1.56 1.54 1.53 1.56 1.58 1.54 1.47 1.39 1.38 1.42 1.51 1.56 1.57 1.56 1.53 1.51 1.54 1.58 1.62 1.67 1.72 1.76 1.79 1.79 1.78 1.78 1.75 1.74 1.75 1.75 1.74 1.73 1.72 1.70
1.77 1.71 1.69 1.69 1.68 1.67 1.64 1.62 1.60 1.57 1.54 1.57 1.57 1.58 1.57 1.51 1.49 1.52 1.53 1.54 1.56 1.56 1.53 1.51 1.53 1.57 1.60 1.64 1.67 1.69 1.70 1.71 1.72 1.71 1.68 1.67 1.67 1.70 1.72 1.72 1.71 1.70
1.87 1.78 1.72 1.72 1.72 1.68 1.63 1.62 1.59 1.58 1.58 1.60 1.55 1.54 1.50 1.47 1.45 1.49 1.54 1.55 1.57 1.57 1.54 1.53 1.55 1.58 1.60 1.61 1.63 1.66 1.67 1.70 1.72 1.71 1.68 1.66 1.70 1.74 1.75 1.74 1.77 1.78
1.90 1.87 1.78 1.75 1.74 1.68 1.67 1.67 1.67 1.68 1.64 1.64 1.56 1.48 1.44 1.46 1.49 1.50 1.55 1.58 1.58 1.55 1.55 1.53 1.54 1.58 1.60 1.62 1.66 1.70 1.74 1.75 1.75 1.69 1.65 1.64 1.69 1.73 1.77 1.80 1.82 1.86
1.94 1.91 1.87 1.83 1.77 1.74 1.74 1.73 1.74 1.73 1.74 1.71 1.65 1.61 1.53 1.48 1.48 1.48 1.51 1.55 1.58 1.55 1.55 1.54 1.53 1.55 1.61 1.66 1.72 1.76 1.81 1.82 1.77 1.72 1.66 1.66 1.69 1.72 1.75 1.76 1.80 1.82
1.97 1.95 1.93 1.91 1.84 1.82 1.82 1.81 1.84 1.81 1.76 1.72 1.68 1.67 1.62 1.55 1.49 1.48 1.53 1.58 1.61 1.57 1.54 1.55 1.52 1.53 1.59 1.66 1.74 1.82 1.86 1.85 1.79 1.68 1.61 1.63 1.68 1.68 1.67 1.71 1.75 1.77
Wind_Speed
14 14 13 12 12 12 12 12 11 11 11 11 11 11 10 10 10 10 10 9 9 8 8 8 8 7 7 7 7 7 7 6 6 6 6 6 6 6 6 6 6 6
15 14 14 13 13 12 12 12 12 12 12 11 11 11 10 10 10 10 10 10 9 9 9 8 8 8 8 7 7 7 7 7 7 6 6 7 6 6 6 6 6 6
15 15 15 14 14 13 13 13 12 12 12 11 11 11 10 10 10 10 10 10 10 10 9 9 9 8 8 8 7 7 7 7 7 7 7 7 7 7 7 7 7 6
16 16 16 15 15 14 14 13 13 12 12 12 11 11 11 10 10 10 10 10 10 10 10 9 9 8 8 8 7 8 8 8 8 7 7 7 7 7 7 7 7 7
17 17 17 16 16 15 14 14 13 13 12 12 12 11 11 11 11 11 10 10 10 10 10 9 9 9 9 8 8 8 8 8 8 8 8 8 8 7 7 7 7 7
17 18 18 17 16 16 15 15 14 14 13 13 12 12 12 11 11 11 11 10 10 10 10 9 9 9 9 9 9 8 8 8 8 8 8 8 8 8 8 8 8 8
18 18 18 18 17 17 16 16 15 14 14 13 13 12 12 12 12 11 11 11 10 10 10 10 10 10 10 10 9 9 9 9 9 9 9 9 9 9 9 9 9 8
18 18 18 19 18 18 17 17 16 15 15 14 14 13 13 13 12 12 11 11 11 11 11 11 11 10 10 10 10 10 10 10 9 10 10 10 10 10 10 10 9 9
19 19 19 19 19 19 19 18 17 16 16 15 15 14 14 14 13 13 12 12 12 12 11 11 11 11 11 11 11 11 11 11 11 11 11 11 11 11 11 11 10 10
20 20 19 20 20 20 20 19 18 17 17 16 16 16 15 14 14 14 13 13 13 13 12 12 12 12 11 11 11 11 12 12 12 12 12 12 12 12 12 12 11 11
21 21 20 20 20 20 20 20 19 19 18 17 17 17 16 15 15 15 15 14 14 14 13 13 13 13 12 12 12 12 12 13 13 13 13 13 13 13 12 12 12 12
22 21 21 21 21 21 21 21 20 20 19 19 18 18 18 17 16 16 16 15 15 15 15 14 14 14 13 13 13 13 13 13 13 13 13 13 13 13 13 13 13 13
23 22 22 22 21 21 22 21 21 21 20 20 19 19 19 18 18 17 17 16 16 16 16 16 15 15 15 15 14 14 14 14 14 14 14 13 13 13 14 14 14 14
24 23 23 23 22 22 22 22 22 22 21 21 20 20 20 19 19 18 18 18 17 17 17 17 16 16 16 16 15 14 14 14 14 14 14 14 14 14 15 15 15 15
25 25 24 24 24 23 23 23 23 23 22 22 21 21 20 20 20 19 19 19 18 18 18 17 17 17 17 16 15 15 15 15 15 14 14 14 14 15 15 15 15 15
27 26 26 25 25 25 24 24 23 23 23 23 23 22 21 21 21 20 20 20 19 19 19 18 18 17 16 16 15 15 15 15 15 15 14 14 15 15 15 15 15 15
28 28 27 27 26 26 26 25 24 24 23 23 23 23 22 22 22 21 21 20 20 20 19 19 18 17 17 16 16 16 16 16 15 15 15 15 15 15 15 15 15 15
29 29 28 28 27 27 27 27 26 25 24 24 24 24 23 23 23 22 22 22 21 21 20 20 19 18 17 17 17 17 16 16 16 16 15 16 16 16 15 15 15 15
30 29 29 29 29 28 28 28 27 27 26 25 25 25 24 24 24 23 23 23 22 22 21 20 19 19 18 18 18 18 17 17 17 16 16 16 17 16 16 16 16 16
31 31 30 30 30 29 29 28 28 28 27 26 25 25 25 25 25 24 24 23 23 22 22 21 20 20 19 19 19 19 18 18 17 17 17 18 18 18 17 17 17 17
32 32 31 31 30 30 29 29 29 28 28 27 26 26 26 26 25 25 24 24 23 23 22 22 21 21 20 20 19 19 19 19 18 18 18 19 18 18 18 18 18 19
33 33 33 32 31 31 30 30 29 29 28 28 27 26 26 26 26 25 25 24 24 23 23 23 22 22 21 21 20 20 20 20 20 20 20 19 19 19 19 19 19 20
34 34 34 33 32 32 31 30 30 29 29 28 28 27 26 26 26 26 25 25 25 24 24 24 23 23 22 22 21 21 21 21 21 21 20 20 20 20 20 20 20 20
36 36 35 35 34 33 32 31 31 30 29 29 28 27 27 26 26 26 26 25 25 25 24 24 24 23 23 23 22 22 22 22 21 21 20 20 20 20 20 20 20 20
36 37 36 36 35 34 33 32 31 30 30 29 29 28 28 27 26 26 26 26 26 25 25 25 24 24 24 23 23 23 23 22 22 21 21 21 20 20 20 20 20 20
34 37 37 37 36 35 34 33 32 31 30 30 29 29 29 28 27 27 27 27 26 26 25 25 25 24 24 23 23 23 22 22 22 22 21 21 21 21 21 20 19 18
Wind_Direction
211 211 211 211 211 210 209 209 209 208 208 207 208 208 209 211 212 212 213 215 216 218 219 220 222 226 229 231 232 235 240 245 250 254 257 261 266 268 271 276 281 286
212 212 212 212 212 212 211 211 211 211 211 210 209 209 210 212 213 213 215 216 217 219 221 222 224 226 230 232 235 239 242 247 252 256 259 262 265 267 270 274 277 280
213 214 214 214 213 213 213 213 213 212 212 211 211 211 212 213 213 213 214 215 217 219 220 222 225 226 229 232 235 239 242 247 252 256 259 262 263 266 269 271 273 275
215 215 215 214 213 213 214 214 214 213 213 212 212 213 214 214 213 213 213 214 217 219 220 222 225 227 229 231 234 238 242 246 250 253 256 259 262 265 268 269 271 274
217 217 216 215 214 214 214 215 214 214 215 215 215 216 216 215 214 214 215 216 218 220 221 223 226 227 229 231 235 239 242 245 248 251 255 259 263 265 266 267 271 275
219 219 217 216 216 216 216 215 216 216 216 218 218 218 218 216 216 217 217 218 219 220 222 223 226 228 230 233 237 240 244 246 248 252 256 260 263 264 265 267 270 274
221 221 219 218 217 217 217 217 217 218 218 219 219 220 219 218 218 219 220 221 220 221 223 226 228 230 232 235 239 242 245 248 251 255 258 261 263 265 265 266 268 270
221 222 221 220 218 218 219 219 219 220 221 221 221 221 221 221 221 222 223 224 224 225 227 229 231 233 235 238 241 244 247 250 253 256 260 262 263 264 264 265 266 267
223 223 222 221 220 220 221 221 222 222 222 223 223 223 223 223 223 224 226 227 228 230 231 232 234 236 238 241 244 246 250 252 255 258 261 263 264 265 265 265 265 266
224 223 223 223 222 222 223 223 223 224 224 224 225 225 225 225 226 227 229 229 231 233 234 236 238 240 242 245 247 249 253 256 258 260 263 265 266 266 265 266 268 272
225 224 224 224 223 224 224 224 225 225 225 226 226 227 227 227 228 229 230 231 233 235 236 238 240 242 246 249 250 253 256 258 260 262 264 266 267 267 268 271 275 278
226 225 225 224 225 225 225 225 226 226 227 227 228 228 228 228 229 231 232 233 235 236 238 240 241 244 248 251 253 256 260 261 261 263 265 267 269 269 271 274 275 276
226 226 226 225 226 226 227 227 227 227 228 229 229 228 228 229 230 232 234 235 237 238 239 240 243 247 250 252 256 260 262 263 263 264 265 267 269 270 272 273 273 274
227 227 227 227 227 228 228 228 228 228 229 230 230 229 229 230 231 232 235 237 238 238 238 241 246 249 253 257 261 262 263 265 264 264 266 267 268 270 273 274 273 274
228 228 228 229 229 229 229 229 229 230 230 230 231 231 231 232 232 234 236 237 239 239 240 243 247 251 254 259 262 262 264 265 264 264 265 267 269 271 274 275 274 275
230 230 230 230 230 230 230 230 230 230 230 231 232 233 233 233 234 236 237 238 239 240 242 244 248 251 254 256 258 260 263 263 263 264 266 268 270 272 273 275 275 276
231 231 231 231 231 230 230 231 231 231 231 232 233 233 234 235 236 237 238 238 239 240 243 245 248 251 254 254 256 259 261 262 263 265 266 268 270 272 273 275 276 276
231 231 231 232 232 232 231 231 232 232 233 233 234 234 235 236 237 237 238 239 239 240 242 244 247 251 254 254 257 259 260 262 264 264 265 268 271 272 274 276 276 276
232 232 232 232 233 233 233 233 233 233 234 235 235 236 236 237 238 238 238 239 240 240 242 243 246 250 253 254 256 258 259 261 263 264 265 267 271 273 274 276 276 276
232 232 232 233 233 234 234 234 234 234 235 236 237 237 237 238 239 239 239 239 240 240 241 243 246 250 253 253 254 256 258 260 262 264 265 268 271 274 275 276 276 276
232 233 233 233 233 234 234 234 235 235 236 236 237 238 239 240 240 239 239 240 240 241 242 244 247 250 252 252 253 255 257 259 261 263 265 268 271 272 274 275 276 277
232 232 233 233 234 234 234 235 235 235 236 236 237 238 239 239 239 239 239 240 241 242 242 244 247 250 252 253 254 255 256 259 261 263 265 268 270 272 274 276 277 278
232 232 232 233 233 234 235 235 235 235 236 237 237 238 238 238 238 238 239 241 242 242 243 245 247 250 252 253 254 255 257 260 262 264 266 268 270 273 274 276 277 278
233 232 232 232 232 233 235 235 235 236 236 237 237 238 237 238 238 239 239 241 242 243 244 246 248 250 252 254 255 256 258 260 262 264 266 268 270 272 274 275 276 276
234 233 232 232 232 233 234 235 236 236 236 237 237 237 236 237 238 239 240 241 243 244 245 246 248 250 253 254 255 257 259 260 261 263 265 267 269 272 274 276 276 275
235 234 233 232 232 233 233 234 235 236 236 236 236 236 235 236 237 239 239 241 242 243 245 247 249 250 252 254 255 257 258 258 260 262 264 266 269 271 272 273 272 270